DW4277 Weather Reports


time (UTC)temp
F
wind
direction
speed
knots
gust
knots
rain 1hr
in
rain 24hr
in
rain mn
in
humidity
%
barometer
mb
20260507034511 59 304 16.5 33.0 0.00 0.00 0.00 65 1007.9
20260507033007 59 348 19.1 39.1 0.00 0.00 0.00 65 1007.9
20260507031506 59 322 13.9 35.6 0.00 0.00 0.00 65 1007.6
20260507030005 59 323 21.7 41.7 0.00 0.00 0.00 66 1007.5
20260507024600 59 340 22.6 37.4 0.00 0.00 0.00 66 1007.4
20260507023057 60 337 17.4 38.2 0.00 0.00 0.00 67 1007.3
20260507021604 60 347 13.0 35.6 0.00 0.00 0.00 67 1007.4
20260507020054 60 324 11.3 28.7 0.00 0.00 0.00 66 1007.3
20260507014556 60 344 15.6 26.9 0.00 0.00 0.00 66 1007.2
20260507013050 60 351 15.6 29.5 0.00 0.00 0.00 67 1007.2
20260507011555 61 319 18.2 36.5 0.00 0.00 0.00 67 1007.0
20260507010047 61 332 17.4 43.4 0.00 0.00 0.00 66 1006.9
20260507004545 61 342 20.0 39.1 0.00 0.00 0.00 65 1007.0
20260507003042 62 325 9.6 30.4 0.00 0.00 0.00 64 1006.8
20260507001540 62 353 20.0 36.5 0.00 0.00 0.00 64 1006.6
20260507000038 62 333 21.7 38.2 0.00 0.00 0.00 65 1006.5
20260506234548 62 344 20.0 42.6 0.00 0.00 0.00 66 1006.1
20260506233034 62 339 22.6 42.6 0.00 0.00 0.00 70 1006.3
20260506231532 62 321 19.1 35.6 0.00 0.00 0.00 70 1006.2
20260506230032 63 309 17.4 40.8 0.00 0.00 0.00 68 1006.1
20260506224527 63 319 6.1 25.2 0.00 0.00 0.00 67 1005.8
20260506223024 62 289 0.0 1.7 0.00 0.00 0.00 69 1005.6
20260506221523 62 290 0.0 0.0 0.00 0.00 0.00 69 1005.3
20260506220028 63 268 6.1 13.0 0.00 0.00 0.00 68 1004.9
20260506214517 63 217 0.9 13.0 0.00 0.00 0.00 66 1004.3
20260506213022 64 224 3.5 15.6 0.00 0.00 0.00 66 1004.0
20260506211516 64 220 4.3 16.5 0.00 0.00 0.00 66 1004.0
20260506210015 64 235 5.2 15.6 0.00 0.00 0.00 65 1003.7
20260506204515 65 213 9.6 20.9 0.00 0.00 0.00 65 1003.7
20260506203023 65 210 8.7 20.9 0.00 0.00 0.00 65 1003.7
20260506201514 65 192 7.0 20.0 0.00 0.00 0.00 63 1003.6
20260506200014 66 198 2.6 18.2 0.00 0.00 0.00 62 1003.6
20260506194513 67 206 12.2 26.1 0.00 0.00 0.00 61 1003.1
20260506193016 67 246 13.0 31.3 0.00 0.00 0.00 59 1002.9
20260506191512 67 213 16.5 36.5 0.00 0.00 0.00 59 1002.8
20260506190010 68 215 15.6 38.2 0.00 0.00 0.00 58 1002.8
20260506184511 68 225 20.9 38.2 0.00 0.00 0.00 57 1002.6
20260506183010 68 235 19.1 34.8 0.00 0.00 0.00 57 1002.5
20260506181509 69 222 16.5 40.0 0.00 0.00 0.00 55 1002.4
20260506180014 70 225 20.0 43.4 0.00 0.00 0.00 54 1002.2
20260506174508 70 224 18.2 36.5 0.00 0.00 0.00 53 1002.2
20260506173007 71 247 18.2 40.8 0.00 0.00 0.00 52 1002.2
20260506171515 72 240 16.5 40.8 0.00 0.00 0.00 53 1002.1
20260506170008 72 214 19.1 38.2 0.00 0.00 0.00 52 1002.0
20260506164505 73 225 18.2 37.4 0.00 0.00 0.00 51 1002.1
20260506163004 74 210 9.6 40.8 0.00 0.00 0.00 49 1002.2
20260506161502 74 240 15.6 40.8 0.00 0.00 0.00 48 1002.3
20260506160001 75 230 13.9 46.1 0.00 0.00 0.00 48 1002.5
20260506154600 75 230 14.8 44.3 0.00 0.00 0.00 49 1002.5
20260506153100 75 226 19.1 48.7 0.00 0.00 0.00 48 1002.6
20260506151608 75 246 20.9 40.8 0.00 0.00 0.00 47 1002.5
20260506144606 75 208 20.0 46.9 0.00 0.00 0.00 45 1002.6
20260506143100 76 235 12.2 39.1 0.00 0.00 0.00 43 1002.5
20260506141557 77 230 15.6 43.4 0.00 0.00 0.00 41 1002.7
20260506140105 78 210 12.2 46.1 0.00 0.00 0.00 41 1002.6
20260506134552 78 246 15.6 36.5 0.00 0.00 0.00 41 1002.9
20260506133114 77 213 16.5 45.2 0.00 0.00 0.00 41 1002.9
20260506131546 77 205 19.1 36.5 0.00 0.00 0.00 43 1003.2
20260506130057 76 203 14.8 34.8 0.00 0.00 0.00 42 1003.4
20260506124543 76 235 17.4 33.0 0.00 0.00 0.00 42 1003.5
20260506123042 76 208 11.3 36.5 0.00 0.00 0.00 41 1003.7
20260506121542 76 225 14.8 41.7 0.00 0.00 0.00 40 1003.9
20260506120043 76 235 8.7 27.8 0.00 0.00 0.00 40 1004.0
20260506114542 75 184 12.2 32.2 0.00 0.00 0.00 43 1004.1
20260506113035 75 176 19.1 29.5 0.00 0.00 0.00 45 1004.4
20260506111537 75 212 20.0 35.6 0.00 0.00 0.00 46 1004.7
20260506110036 74 188 13.0 33.0 0.00 0.00 0.00 48 1004.9
20260506104529 74 158 11.3 33.9 0.00 0.00 0.00 49 1005.1
20260506103028 73 190 14.8 34.8 0.00 0.00 0.00 48 1005.6
20260506101544 73 179 15.6 31.3 0.00 0.00 0.00 50 1005.6
20260506100025 73 179 8.7 26.9 0.00 0.00 0.00 49 1005.9
20260506094523 73 204 14.8 29.5 0.00 0.00 0.00 50 1006.1
20260506093021 73 202 7.0 21.7 0.00 0.00 0.00 53 1006.1
20260506091522 74 184 8.7 20.9 0.00 0.00 0.00 47 1006.2
20260506090015 73 157 1.7 14.8 0.00 0.00 0.00 50 1006.3
20260506084518 72 142 4.3 13.9 0.00 0.00 0.00 51 1006.3
20260506083008 72 211 1.7 13.9 0.00 0.00 0.00 53 1006.3
20260506081507 71 142 1.7 11.3 0.00 0.00 0.00 54 1006.3
20260506073104 70 187 0.0 6.1 0.00 0.00 0.00 56 1006.6
20260506071607 70 186 0.0 6.1 0.00 0.00 0.00 58 1006.7
20260506061539 65 186 0.0 0.0 0.00 0.00 0.00 64 1007.0
20260506044529 61 323 0.0 0.0 0.00 0.00 0.00 73 1006.7
20260506043028 60 336 0.0 0.0 0.00 0.00 0.00 74 1006.7
20260506041531 60 336 0.0 7.0 0.00 0.00 0.00 74 1006.5
20260506040025 61 338 1.7 11.3 0.00 0.00 0.00 74 1006.4